Flag for U.S.A. Weather past 2 weeks in Lansing, Michigan, U.S.A.

Now
27 °F

Mostly cloudy.


Feels Like: 20 °F
Forecast: 21 / 32 °F
Wind: 6 mph from Northeast

Location: Capital City Airport

Current Time: Dec 19, 2014 at 5:15:22 AM

Latest Report: Dec 19, 2014 at 3:53 AM


Visibility: 10 mi

Pressure: 30.25 "Hg

Humidity: 85%

Dew point: 23 °F

Location of LansingLocation

Historic Weather in Lansing — Graph

°F

Lansing temperature yesterday

Maximum temperature yesterday: 32 °F (at 12:53 PM)
Minimum temperature yesterday: 28 °F (at 12:53 AM)
Average temperature yesterday: 30 °F

Past Weeks' High & Low Weather Summary

 TemperatureHumidityPressure
High51 °F (Dec 15, 3:53 PM)100% (Dec 9, 1:53 AM)30.73 "Hg (Dec 9, 1:53 AM)
Low19 °F (Dec 7, 7:53 AM)35% (Dec 7, 2:53 PM)29.66 "Hg (Dec 16, 8:03 AM)
Average34 °F80%30.20 "Hg
* Reported Dec 4 3:53 AM — Dec 19 3:53 AM, Lansing, Weather by CustomWeather, © 2014

Note: Actual official high and low records may vary slightly from our data, if they occured in-between our weather recording intervals... More about our weather records

Advertising

Lansing weather history for previous 24 hours

 ConditionsComfort  
Time TempWeatherWind HumidityBarometerVisibility
3:53 AM
Dec 19
27 °FMostly cloudy.6 mph85%30.25 "Hg10 mi
2:53 AM27 °FOvercast.5 mph89%30.25 "Hg10 mi
1:53 AM27 °FOvercast.6 mph89%30.23 "Hg10 mi
12:53 AM27 °FIce fog.5 mph92%30.23 "Hg6 mi
11:53 PM
Dec 18
28 °FIce fog.7 mph89%30.23 "Hg6 mi
10:53 PM28 °FIce fog.6 mph93%30.23 "Hg6 mi
9:53 PM29 °FOvercast.6 mph89%30.22 "Hg10 mi
8:53 PM30 °FOvercast.No wind85%30.22 "Hg10 mi
7:53 PM30 °FOvercast.3 mph89%30.22 "Hg10 mi
6:53 PM30 °FMostly cloudy.5 mph92%30.21 "Hg7 mi
6:00 PM31 °FMostly cloudy.3 mph89%30.17 "Hg10 mi
4:53 PM31 °FLight freezing rain. Ice fog.3 mph92%30.19 "Hg6 mi
3:53 PM31 °FLight freezing rain. Ice fog.3 mph92%30.20 "Hg5 mi
3:03 PM31 °FLight freezing rain. Ice fog.6 mph92%30.16 "Hg3 mi
2:53 PM31 °FIce fog.3 mph92%30.19 "Hg3 mi
2:04 PM31 °FIce fog.6 mph89%30.16 "Hg4 mi
1:53 PM32 °FMostly cloudy.7 mph85%30.19 "Hg8 mi
12:53 PM32 °FMore clouds than sun.7 mph85%30.21 "Hg10 mi
12:02 PM31 °FMostly cloudy.9 mph89%30.20 "Hg9 mi
11:53 AM31 °FIce fog.9 mph89%30.23 "Hg6 mi
10:53 AM30 °FIce fog.8 mph92%30.25 "Hg3 mi
9:53 AM30 °FLight snow. Ice fog.8 mph89%30.25 "Hg4 mi
8:53 AM30 °FLow clouds.7 mph85%30.23 "Hg10 mi
7:53 AM30 °FOvercast.7 mph82%30.22 "Hg10 mi
6:53 AM29 °FOvercast.8 mph82%30.23 "Hg10 mi
5:53 AM29 °FOvercast.8 mph82%30.22 "Hg10 mi
Weather by CustomWeather, © 2014

See weather overviewHow to use our weather pages